Regional Weather Roundup
Issued by NWS

Home | Current Version | Previous Version | Graphics & Text | Print | Product List | Glossary On
Versions: 1 2 3 4 5 6 7 8 9 10 11 12 13 14 15 16 17 18 19 20 21 22 23 24 25 26 27 28 29 30 31 32 33 34 35 36 37 38 39 40 41 42 43 44 45 46 47 48 49 50
000
ASUS43 KTOP 301359
RWRKS

WEATHER ROUNDUP FOR KANSAS
NATIONAL WEATHER SERVICE GOODLAND KS
900 AM CDT THU OCT 30 2014

NOTE:  "FAIR" INDICATES FEW OR NO CLOUDS BELOW 12,000 FEET WITH NO
SIGNIFICANT WEATHER AND/OR OBSTRUCTIONS TO VISIBILITY.

KSZ001>006-013>018-027>032-041>047-301500-
NORTHWEST KANSAS

CITY           SKY/WX    TMP DP  RH WIND       PRES   REMARKS
GOODLAND       CLEAR     42  26  53 W12       30.29R
HAYS           CLEAR     48  28  46 NW12      30.18R
HILL CITY      CLEAR     48  28  46 NW10      30.21R
RUSSELL        CLEAR     48  32  53 NW13      30.15R
$$

KSZ061>065-074>080-084>089-301500-
SOUTHWEST KANSAS

CITY           SKY/WX    TMP DP  RH WIND       PRES   REMARKS
DODGE CITY     CLEAR     46  29  51 NW10      30.20R
ELKHART          N/A     47  25  42 N9          N/A
GARDEN CITY    CLEAR     45  29  53 N13       30.23R
GREAT BEND     SUNNY     48  30  49 NW9       30.17R
LIBERAL        CLEAR     45  30  57 NW9       30.24R
$$

KSZ066>073-081>083-090>101-301500-
SOUTHEAST KANSAS

CITY           SKY/WX    TMP DP  RH WIND       PRES   REMARKS
CHANUTE        CLOUDY    52  42  69 SW15      30.03S
COFFEYVILLE    PTSUNNY   51  44  77 S9        30.08R
HUTCHINSON     SUNNY     56  37  49 NW14      30.13R
NEWTON         SUNNY     48  34  57 NW13      30.11R
PARSONS        CLOUDY    52  44  74 S8        30.07S
WICHITA INTL   MOSUNNY   50  37  61 NW9       30.09R
WICHITA JABRA  MOSUNNY   52  37  56 W9        30.09R
WINFIELD       PTSUNNY   51  40  65 W12       30.10R
$$

KSZ007>012-019>026-033>040-048>060-102>105-301500-
NORTHEAST KANSAS

CITY           SKY/WX    TMP DP  RH WIND       PRES   REMARKS
CONCORDIA      SUNNY     49  37  63 NW10      30.11R
EMPORIA        SUNNY     52  38  58 W8        30.04R
LAWRENCE       PTSUNNY   46  42  86 CALM      30.02R
MANHATTAN      SUNNY     49  39  68 CALM      30.07R
OLATHE IND     PTSUNNY   54  42  64 SW6       30.03R
OLATHE EXE     PTSUNNY   53  43  68 SW5       30.02R
SALINA         SUNNY     51  38  60 NW13      30.12R
TOPEKA BILLARD MOSUNNY   53  45  74 CALM      30.03R
TOPEKA FORBES  MOSUNNY   50  42  74 W5        30.02R
$$



USA.gov is the U.S. government's official web portal to all federal, state and local government web resources and services.